Regional Weather Roundup
Issued by NWS

Home | Current Version | Previous Version | Text Only | Print | Product List | Glossary On
Versions: 1 2 3 4 5 6 7 8 9 10 11 12 13 14 15 16 17 18 19 20 21 22 23 24 25 26 27 28 29 30 31 32 33 34 35 36 37 38 39 40 41 42 43 44 45 46 47 48 49 50
574
ASUS44 KLIX 220513
RWRLA
LOUISIANA WEATHER ROUNDUP
NATIONAL WEATHER SERVICE NEW ORLEANS LA
1200 AM CDT TUE AUG 22 2017

NOTE: "FAIR" INDICATES FEW OR NO CLOUDS BELOW 12,000 FEET WITH NO
      SIGNIFICANT WEATHER AND/OR OBSTRUCTIONS TO VISIBILITY.
      SKY/WX - SKY CONDITION AND SIGNIFICANT WEATHER.
      TMP - AIR TEMPERATURE.    DP   - DEWPOINT TEMPERATURE.
      RH  - RELATIVE HUMIDITY.  PRES - PRESSURE.
      HX  - HEAT INDEX.         WCI  - WIND CHILL INDEX.

*  THESE STATIONS ARE NOT NWS OR FAA STATIONS AND ARE NOT UNDER
   NWS QUALITY CONTROL.

LAZ040-048-061>063-065-066-069-220600-
SOUTHEAST LOUISIANA

CITY           SKY/WX    TMP DP  RH WIND       PRES   REMARKS
N.O. INTL ARPT MOCLDY    78  77  96 CALM      30.09F
N.O. LAKEFRONT PTCLDY    81  75  82 E3        30.10F
N.O. DOWNTOWN* FAIR      83  75  77 CALM      30.11S
RESERVE*       FAIR      77  75  91 CALM      30.10F
SLIDELL        MOCLDY    74  73  97 NE3       30.10F
BATON ROUGE    PTCLDY    75  73  93 NE3       30.10F
BOOTHVILLE     PTCLDY    83  79  88 SE6       30.09F
BELLE CHASSE   NOT AVBL
BOGALUSA*      FAIR      75  72  89 CALM      30.13S
GALLIANO*      PTCLDY    77  73  89 CALM      30.09F
NEW ROADS*     FAIR      75  74  94 CALM      30.10S
GONZALES*      FAIR      76  74  96 CALM      30.09F
HAMMOND*       MOCLDY    73  70  88 CALM      30.11S
HOUMA*         NOT AVBL
PORT FOURCHON* CLEAR     86  75  70 SE8       30.08F HX  95

$$

LAZ041-044-053-054-220600-
SOUTHWEST LOUISIANA

CITY           SKY/WX    TMP DP  RH WIND       PRES   REMARKS
LAKE CHARLES   CLOUDY    81  77  88 E5        30.08F
LAFAYETTE      PTCLDY    78  74  87 CALM      30.09F
PATTERSON      PTCLDY    77  75  93 NE3       30.09F
SALT POINT       N/A     77  74  90 CALM      30.07F
NEW IBERIA     PTCLDY    76  72  87 CALM      30.09F
CHENAULT AIRPK CLOUDY    78  76  94 CALM      30.09S

$$

LAZ027-028-220600-
CENTRAL LOUISIANA

CITY           SKY/WX    TMP DP  RH WIND       PRES   REMARKS
FORT POLK      MOCLDY    79  75  89 SE5       30.09S
ALEXANDRIA INT MOCLDY    77  72  84 SE7       30.08S
ALEXANDRIA     CLOUDY    76  74  93 CALM      30.10F

$$

LAZ001-002-220600-
NORTHWEST LOUISIANA

CITY           SKY/WX    TMP DP  RH WIND       PRES   REMARKS
SHREVEPORT     CLEAR     79  75  87 S3        30.07F
BARKSDALE AFB  CLEAR     77  75  94 SE5       30.08S
DTN SHREVEPORT CLEAR     83  75  77 S6        30.08F

$$

LAZ014-016-220600-
NORTHEAST LOUISIANA

CITY           SKY/WX    TMP DP  RH WIND       PRES   REMARKS
MONROE         CLEAR     76  73  91 S5        30.10S
TALLULAH       NOT AVBL

$$





USA.gov is the U.S. government's official web portal to all federal, state and local government web resources and services.